AAL2214 KEYW-KDFW

Flight info

Callsign AAL2214
Flight time 2h 34m
Altitude 38000
Route BUFTT1 GUFFS THMPR Y290 BACCA ROZZI Y280 REDFN EYEKO HRV PNUTS WHINY4
Aircraft B38M/M-SDE1FGHILORVWXY/HB1

Departure

Time 2026-05-06 18:19
Airport Key West International Airport (KEYW)

Arrival

Time 2026-05-06 20:53
Airport Dallas Fort Worth International Airport (KDFW)
Time Latitude Longitude Altitude Speed Heading
2026-05-06 17:44 24.55444 -81.75539 14 ft 0 kts 180°
2026-05-06 18:06 24.55458 -81.75539 16 ft 3 kts 180°
2026-05-06 18:07 24.55481 -81.75534 16 ft 4 kts 225°
2026-05-06 18:07 24.55489 -81.75510 14 ft 4 kts 269°
2026-05-06 18:07 24.55489 -81.75498 14 ft 1 kts 269°
2026-05-06 18:14 24.55489 -81.75500 15 ft 1 kts 269°
2026-05-06 18:14 24.55489 -81.75549 14 ft 9 kts 269°
2026-05-06 18:14 24.55497 -81.75586 15 ft 4 kts 329°
2026-05-06 18:14 24.55525 -81.75592 15 ft 4 kts 321°
2026-05-06 18:15 24.55529 -81.75622 15 ft 6 kts 270°
2026-05-06 18:15 24.55528 -81.75696 15 ft 14 kts 269°
2026-05-06 18:15 24.55527 -81.75778 15 ft 17 kts 268°
2026-05-06 18:15 24.55526 -81.75913 14 ft 19 kts 269°
2026-05-06 18:16 24.55524 -81.76066 14 ft 21 kts 269°
2026-05-06 18:16 24.55523 -81.76232 14 ft 23 kts 270°
2026-05-06 18:16 24.55522 -81.76410 14 ft 24 kts 269°
2026-05-06 18:16 24.55521 -81.76566 14 ft 10 kts 270°
2026-05-06 18:17 24.55522 -81.76630 14 ft 7 kts 285°
2026-05-06 18:17 24.55526 -81.76637 14 ft 0 kts 308°
2026-05-06 18:17 24.55530 -81.76642 15 ft 3 kts 313°
2026-05-06 18:18 24.55570 -81.76662 13 ft 8 kts 350°
2026-05-06 18:18 24.55607 -81.76660 13 ft 2 kts 43°
2026-05-06 18:18 24.55607 -81.76655 13 ft 0 kts 90°
2026-05-06 18:19 24.55608 -81.76454 12 ft 68 kts 90°
2026-05-06 18:19 24.55615 -81.75631 18 ft 144 kts 90°
2026-05-06 18:19 24.55622 -81.74470 630 ft 154 kts 89°
2026-05-06 18:19 24.55827 -81.73284 1394 ft 165 kts 68°
2026-05-06 18:20 24.56537 -81.72245 2011 ft 187 kts 40°
2026-05-06 18:20 24.57813 -81.71572 2448 ft 221 kts
2026-05-06 18:20 24.59440 -81.71594 3060 ft 247 kts 353°
2026-05-06 18:20 24.61171 -81.71834 4034 ft 255 kts 355°
2026-05-06 18:21 24.62999 -81.71877 4877 ft 271 kts 360°
2026-05-06 18:21 24.64881 -81.72170 5795 ft 276 kts 335°
2026-05-06 18:21 24.66425 -81.73407 6830 ft 280 kts 312°
2026-05-06 18:21 24.67735 -81.75026 7734 ft 285 kts 313°
2026-05-06 18:22 24.69071 -81.76635 8787 ft 286 kts 313°
2026-05-06 18:22 24.70427 -81.78256 9764 ft 290 kts 314°
2026-05-06 18:22 24.71811 -81.79900 10534 ft 300 kts 315°
2026-05-06 18:22 24.73278 -81.81633 10980 ft 320 kts 315°
2026-05-06 18:23 24.74821 -81.83451 11385 ft 338 kts 315°
2026-05-06 18:23 24.76456 -81.85378 11912 ft 350 kts 315°
2026-05-06 18:23 24.78114 -81.87343 12745 ft 351 kts 315°
2026-05-06 18:23 24.79788 -81.89330 13461 ft 357 kts 316°
2026-05-06 18:24 24.81480 -81.91341 14180 ft 359 kts 316°
2026-05-06 18:24 24.83184 -81.93369 14844 ft 362 kts 316°
2026-05-06 18:24 24.84901 -81.95413 15507 ft 364 kts 315°
2026-05-06 18:24 24.86627 -81.97469 16150 ft 367 kts 315°
2026-05-06 18:25 24.88364 -81.99538 16778 ft 369 kts 315°
2026-05-06 18:25 24.90113 -82.01621 17397 ft 371 kts 315°
2026-05-06 18:25 24.91872 -82.03718 17990 ft 374 kts 315°
2026-05-06 18:25 24.93640 -82.05827 18555 ft 376 kts 315°
2026-05-06 18:26 24.95420 -82.07951 19050 ft 378 kts 315°
2026-05-06 18:26 24.97209 -82.10087 19533 ft 381 kts 314°
2026-05-06 18:26 24.99010 -82.12237 20017 ft 383 kts 314°
2026-05-06 18:26 25.00822 -82.14402 20493 ft 385 kts 314°
2026-05-06 18:27 25.02641 -82.16578 20970 ft 387 kts 314°
2026-05-06 18:27 25.04470 -82.18765 21435 ft 389 kts 314°
2026-05-06 18:27 25.06312 -82.20968 21903 ft 391 kts 314°
2026-05-06 18:27 25.08163 -82.23185 22357 ft 394 kts 314°
2026-05-06 18:28 25.10023 -82.25413 22805 ft 396 kts 314°
2026-05-06 18:28 25.11896 -82.27657 23248 ft 398 kts 314°
2026-05-06 18:28 25.13776 -82.29911 23691 ft 401 kts 313°
2026-05-06 18:28 25.15666 -82.32178 24092 ft 401 kts 313°
2026-05-06 18:29 25.17560 -82.34451 24464 ft 403 kts 313°
2026-05-06 18:29 25.19463 -82.36737 24813 ft 406 kts 313°
2026-05-06 18:29 25.21377 -82.39037 25171 ft 408 kts 313°
2026-05-06 18:29 25.23301 -82.41351 25515 ft 410 kts 313°
2026-05-06 18:30 25.25239 -82.43680 25864 ft 413 kts 313°
2026-05-06 18:30 25.27183 -82.46019 26218 ft 415 kts 313°
2026-05-06 18:30 25.29140 -82.48375 26561 ft 417 kts 312°
2026-05-06 18:30 25.31105 -82.50742 26914 ft 419 kts 312°
2026-05-06 18:31 25.33081 -82.53124 27254 ft 421 kts 312°
2026-05-06 18:31 25.35068 -82.55520 27589 ft 424 kts 312°
2026-05-06 18:31 25.37065 -82.57929 27922 ft 426 kts 312°
2026-05-06 18:31 25.39071 -82.60350 28257 ft 428 kts 312°
2026-05-06 18:32 25.41088 -82.62786 28577 ft 431 kts 312°
2026-05-06 18:32 25.43116 -82.65237 28903 ft 433 kts 311°
2026-05-06 18:32 25.45125 -82.67667 29219 ft 435 kts 311°
2026-05-06 18:32 25.47170 -82.70141 29563 ft 437 kts 311°
2026-05-06 18:33 25.49220 -82.72621 29924 ft 437 kts 311°
2026-05-06 18:33 25.51278 -82.75113 30210 ft 440 kts 311°
2026-05-06 18:33 25.53345 -82.77618 30463 ft 441 kts 311°
2026-05-06 18:33 25.55418 -82.80133 30721 ft 443 kts 311°
2026-05-06 18:34 25.57500 -82.82657 30978 ft 445 kts 311°
2026-05-06 18:34 25.59585 -82.85189 31317 ft 444 kts 310°
2026-05-06 18:34 25.61662 -82.87714 31692 ft 443 kts 310°
2026-05-06 18:34 25.63731 -82.90230 32086 ft 441 kts 310°
2026-05-06 18:35 25.65793 -82.92740 32472 ft 440 kts 310°
2026-05-06 18:35 25.67849 -82.95244 32877 ft 438 kts 310°
2026-05-06 18:35 25.69895 -82.97737 33290 ft 437 kts 310°
2026-05-06 18:35 25.71936 -83.00225 33679 ft 435 kts 310°
2026-05-06 18:36 25.73967 -83.02703 34076 ft 433 kts 310°
2026-05-06 18:36 25.75991 -83.05172 34414 ft 432 kts 310°
2026-05-06 18:36 25.78014 -83.07641 34722 ft 432 kts 310°
2026-05-06 18:36 25.80030 -83.10103 35046 ft 431 kts 310°
2026-05-06 18:37 25.82039 -83.12559 35384 ft 429 kts 310°
2026-05-06 18:37 25.84042 -83.15008 35688 ft 428 kts 310°
2026-05-06 18:37 25.86042 -83.17455 35984 ft 428 kts 310°
2026-05-06 18:37 25.88041 -83.19900 36249 ft 427 kts 310°
2026-05-06 18:38 25.90036 -83.22344 36525 ft 427 kts 310°
2026-05-06 18:38 25.92030 -83.24787 36791 ft 427 kts 310°
2026-05-06 18:38 25.94022 -83.27229 37054 ft 426 kts 310°
2026-05-06 18:38 25.96010 -83.29666 37309 ft 426 kts 310°
2026-05-06 18:39 25.97997 -83.32103 37554 ft 425 kts 310°
2026-05-06 18:39 25.99980 -83.34537 37802 ft 425 kts 310°
2026-05-06 18:39 26.01936 -83.36939 38016 ft 424 kts 310°
2026-05-06 18:40 26.05894 -83.41804 38072 ft 422 kts 310°
2026-05-06 18:40 26.09827 -83.46642 38077 ft 422 kts 310°
2026-05-06 18:41 26.13755 -83.51480 38076 ft 421 kts 309°
2026-05-06 18:41 26.17698 -83.56342 38089 ft 420 kts 309°
2026-05-06 18:42 26.21619 -83.61181 38082 ft 420 kts 309°
2026-05-06 18:42 26.25509 -83.65987 38079 ft 421 kts 309°
2026-05-06 18:43 26.29425 -83.70831 38077 ft 421 kts 309°
2026-05-06 18:43 26.33338 -83.75676 38080 ft 420 kts 309°
2026-05-06 18:44 26.37250 -83.80526 38082 ft 420 kts 309°
2026-05-06 18:44 26.41159 -83.85377 38080 ft 421 kts 309°
2026-05-06 18:45 26.45068 -83.90233 38086 ft 420 kts 309°
2026-05-06 18:45 26.48962 -83.95077 38078 ft 419 kts 309°
2026-05-06 18:46 26.52861 -83.99931 38081 ft 420 kts 309°
2026-05-06 18:46 26.56758 -84.04788 38081 ft 420 kts 309°
2026-05-06 18:47 26.60654 -84.09650 38075 ft 420 kts 309°
2026-05-06 18:47 26.64548 -84.14514 38075 ft 420 kts 309°
2026-05-06 18:48 26.68441 -84.19383 38078 ft 420 kts 309°
2026-05-06 18:48 26.72331 -84.24254 38078 ft 420 kts 309°
2026-05-06 18:49 26.76220 -84.29127 38089 ft 420 kts 309°
2026-05-06 18:49 26.80098 -84.33994 38072 ft 418 kts 308°
2026-05-06 18:50 26.83969 -84.38857 38070 ft 418 kts 308°
2026-05-06 18:50 26.87839 -84.43722 38073 ft 418 kts 308°
2026-05-06 18:51 26.91681 -84.48560 38075 ft 418 kts 308°
2026-05-06 18:51 26.95548 -84.53434 38072 ft 418 kts 308°
2026-05-06 18:52 26.99412 -84.58310 38073 ft 418 kts 308°
2026-05-06 18:52 27.03277 -84.63191 38072 ft 418 kts 308°
2026-05-06 18:53 27.07139 -84.68075 38060 ft 418 kts 308°
2026-05-06 18:53 27.10996 -84.72959 38063 ft 417 kts 308°
2026-05-06 18:54 27.14842 -84.77833 38074 ft 417 kts 308°
2026-05-06 18:54 27.18687 -84.82712 38069 ft 417 kts 308°
2026-05-06 18:55 27.22530 -84.87593 38067 ft 417 kts 308°
2026-05-06 18:55 27.26369 -84.92476 38073 ft 417 kts 308°
2026-05-06 18:56 27.30210 -84.97367 38067 ft 417 kts 308°
2026-05-06 18:56 27.34048 -85.02258 38067 ft 417 kts 308°
2026-05-06 18:57 27.37886 -85.07157 38066 ft 418 kts 308°
2026-05-06 18:57 27.41727 -85.12064 38069 ft 417 kts 308°
2026-05-06 18:58 27.45551 -85.16954 38069 ft 416 kts 308°
2026-05-06 18:58 27.49377 -85.21853 38067 ft 416 kts 308°
2026-05-06 18:59 27.53200 -85.26755 38067 ft 416 kts 308°
2026-05-06 18:59 27.57021 -85.31658 38067 ft 416 kts 308°
2026-05-06 19:00 27.60453 -85.36848 38088 ft 411 kts 298°
2026-05-06 19:00 27.63451 -85.42364 38069 ft 412 kts 299°
2026-05-06 19:01 27.66432 -85.47893 38069 ft 413 kts 298°
2026-05-06 19:01 27.69410 -85.53434 38067 ft 413 kts 298°
2026-05-06 19:02 27.72386 -85.58977 38067 ft 413 kts 298°
2026-05-06 19:02 27.74858 -85.63587 38067 ft 413 kts 298°
2026-05-06 19:03 27.77831 -85.69137 38067 ft 413 kts 298°
2026-05-06 19:03 27.81282 -85.75590 38067 ft 413 kts 298°
2026-05-06 19:04 27.84248 -85.81145 38064 ft 413 kts 298°
2026-05-06 19:04 27.86734 -85.85805 38064 ft 413 kts 298°
2026-05-06 19:05 27.89698 -85.91368 38062 ft 413 kts 298°
2026-05-06 19:05 27.92661 -85.96936 38061 ft 413 kts 298°
2026-05-06 19:06 27.95599 -86.02465 38061 ft 413 kts 298°
2026-05-06 19:06 27.98556 -86.08037 38061 ft 413 kts 298°
2026-05-06 19:07 28.01511 -86.13611 38082 ft 413 kts 298°
2026-05-06 19:07 28.04450 -86.19165 38062 ft 410 kts 298°
2026-05-06 19:08 28.07381 -86.24707 38063 ft 411 kts 298°
2026-05-06 19:08 28.10311 -86.30257 38061 ft 410 kts 298°
2026-05-06 19:09 28.13235 -86.35804 38058 ft 410 kts 298°
2026-05-06 19:09 28.16161 -86.41359 38059 ft 410 kts 298°
2026-05-06 19:10 28.19083 -86.46917 38058 ft 410 kts 298°
2026-05-06 19:10 28.22004 -86.52477 38058 ft 410 kts 298°
2026-05-06 19:11 28.24922 -86.58043 38065 ft 410 kts 297°
2026-05-06 19:11 28.27837 -86.63605 38059 ft 410 kts 297°
2026-05-06 19:12 28.30749 -86.69174 38050 ft 410 kts 296°
2026-05-06 19:12 28.31879 -86.72115 38055 ft 405 kts 285°
2026-05-06 19:12 28.32769 -86.75153 38037 ft 407 kts 287°
2026-05-06 19:13 28.34583 -86.81219 38052 ft 405 kts 287°
2026-05-06 19:13 28.36357 -86.87269 38052 ft 404 kts 287°
2026-05-06 19:14 28.38125 -86.93328 38050 ft 404 kts 287°
2026-05-06 19:14 28.39889 -86.99382 38052 ft 403 kts 286°
2026-05-06 19:15 28.41647 -87.05429 38051 ft 403 kts 286°
2026-05-06 19:15 28.43392 -87.11440 38045 ft 403 kts 286°
2026-05-06 19:16 28.45144 -87.17491 38045 ft 403 kts 286°
2026-05-06 19:16 28.46895 -87.23546 38045 ft 403 kts 286°
2026-05-06 19:17 28.48644 -87.29605 38043 ft 403 kts 286°
2026-05-06 19:17 28.50390 -87.35668 38041 ft 404 kts 286°
2026-05-06 19:18 28.52136 -87.41738 38038 ft 404 kts 286°
2026-05-06 19:18 28.53879 -87.47812 38039 ft 404 kts 286°
2026-05-06 19:19 28.55619 -87.53885 38037 ft 404 kts 286°
2026-05-06 19:19 28.57356 -87.59963 38037 ft 404 kts 286°
2026-05-06 19:20 28.59091 -87.66041 38034 ft 404 kts 286°
2026-05-06 19:20 28.60823 -87.72122 38028 ft 404 kts 285°
2026-05-06 19:21 28.62558 -87.78224 38033 ft 406 kts 285°
2026-05-06 19:21 28.64281 -87.84299 38031 ft 406 kts 285°
2026-05-06 19:22 28.66010 -87.90404 38024 ft 404 kts 285°
2026-05-06 19:22 28.67731 -87.96489 38026 ft 404 kts 285°
2026-05-06 19:23 28.69450 -88.02576 38027 ft 404 kts 285°
2026-05-06 19:23 28.71163 -88.08664 38028 ft 404 kts 285°
2026-05-06 19:24 28.72876 -88.14762 38029 ft 404 kts 285°
2026-05-06 19:24 28.74588 -88.20867 38020 ft 405 kts 285°
2026-05-06 19:25 28.76297 -88.26972 38022 ft 404 kts 285°
2026-05-06 19:25 28.78004 -88.33081 38017 ft 405 kts 285°
2026-05-06 19:26 28.79708 -88.39193 38014 ft 405 kts 284°
2026-05-06 19:26 28.81409 -88.45307 38015 ft 405 kts 284°
2026-05-06 19:27 28.83109 -88.51428 38013 ft 405 kts 284°
2026-05-06 19:27 28.84810 -88.57562 38012 ft 406 kts 284°
2026-05-06 19:28 28.86508 -88.63699 38011 ft 406 kts 284°
2026-05-06 19:28 28.88503 -88.69715 37985 ft 411 kts 299°
2026-05-06 19:29 28.92281 -88.74726 37990 ft 420 kts 307°
2026-05-06 19:29 28.96297 -88.79580 38027 ft 421 kts 308°
2026-05-06 19:30 29.00342 -88.84379 38005 ft 419 kts 308°
2026-05-06 19:30 29.04394 -88.89171 38005 ft 420 kts 308°
2026-05-06 19:31 29.08455 -88.93977 38002 ft 420 kts 308°
2026-05-06 19:31 29.14545 -89.01194 38002 ft 420 kts 307°
2026-05-06 19:32 29.18603 -89.06010 38001 ft 420 kts 307°
2026-05-06 19:32 29.22629 -89.10796 38000 ft 420 kts 307°
2026-05-06 19:33 29.26681 -89.15618 38011 ft 419 kts 307°
2026-05-06 19:33 29.30713 -89.20420 37999 ft 418 kts 307°
2026-05-06 19:34 29.34741 -89.25225 37998 ft 418 kts 307°
2026-05-06 19:34 29.38771 -89.30037 37992 ft 418 kts 307°
2026-05-06 19:35 29.42823 -89.34883 37984 ft 418 kts 307°
2026-05-06 19:35 29.46822 -89.39670 37987 ft 418 kts 307°
2026-05-06 19:36 29.50844 -89.44491 37993 ft 418 kts 307°
2026-05-06 19:36 29.54865 -89.49315 38007 ft 418 kts 307°
2026-05-06 19:37 29.58303 -89.54533 37989 ft 408 kts 298°
2026-05-06 19:37 29.60971 -89.59049 37984 ft 408 kts 298°
2026-05-06 19:38 29.64655 -89.65335 37993 ft 408 kts 298°
2026-05-06 19:38 29.67817 -89.70744 37987 ft 408 kts 298°
2026-05-06 19:39 29.70979 -89.76160 37992 ft 408 kts 298°
2026-05-06 19:39 29.74136 -89.81576 37979 ft 408 kts 298°
2026-05-06 19:40 29.77293 -89.86998 37977 ft 408 kts 298°
2026-05-06 19:40 29.80446 -89.92419 37979 ft 408 kts 298°
2026-05-06 19:41 29.83596 -89.97845 38002 ft 407 kts 298°
2026-05-06 19:41 29.86532 -90.03351 38019 ft 401 kts 295°
2026-05-06 19:42 29.89384 -90.08873 38010 ft 401 kts 295°
2026-05-06 19:42 29.92246 -90.14398 37998 ft 401 kts 295°
2026-05-06 19:43 29.95104 -90.19922 37999 ft 401 kts 295°
2026-05-06 19:43 29.97961 -90.25451 37999 ft 401 kts 295°
2026-05-06 19:44 30.00816 -90.30983 38007 ft 401 kts 295°
2026-05-06 19:44 30.03669 -90.36518 37997 ft 401 kts 295°
2026-05-06 19:45 30.06514 -90.42047 37984 ft 400 kts 295°
2026-05-06 19:45 30.09357 -90.47577 37980 ft 400 kts 294°
2026-05-06 19:46 30.12197 -90.53113 38001 ft 400 kts 294°
2026-05-06 19:46 30.15026 -90.58632 37979 ft 399 kts 294°
2026-05-06 19:47 30.17850 -90.64150 37978 ft 399 kts 294°
2026-05-06 19:47 30.20672 -90.69672 37973 ft 399 kts 294°
2026-05-06 19:48 30.23492 -90.75198 37964 ft 399 kts 294°
2026-05-06 19:48 30.26311 -90.80728 37958 ft 399 kts 294°
2026-05-06 19:49 30.29103 -90.86214 37957 ft 399 kts 294°
2026-05-06 19:49 30.31914 -90.91744 37956 ft 399 kts 294°
2026-05-06 19:50 30.34266 -90.96379 37955 ft 399 kts 294°
2026-05-06 19:50 30.37528 -91.02814 37969 ft 399 kts 294°
2026-05-06 19:51 30.39878 -91.07457 37987 ft 398 kts 294°
2026-05-06 19:51 30.42672 -91.12984 37964 ft 397 kts 294°
2026-05-06 19:52 30.45457 -91.18503 37972 ft 396 kts 293°
2026-05-06 19:52 30.48239 -91.24021 37971 ft 396 kts 293°
2026-05-06 19:53 30.51017 -91.29539 37987 ft 397 kts 293°
2026-05-06 19:53 30.53792 -91.35060 37982 ft 396 kts 293°
2026-05-06 19:54 30.56548 -91.40550 37920 ft 396 kts 293°
2026-05-06 19:54 30.59319 -91.46079 37924 ft 396 kts 293°
2026-05-06 19:55 30.62089 -91.51612 37925 ft 396 kts 293°
2026-05-06 19:55 30.64852 -91.57141 37925 ft 395 kts 293°
2026-05-06 19:56 30.67610 -91.62665 37927 ft 395 kts 292°
2026-05-06 19:56 30.70365 -91.68193 37926 ft 395 kts 292°
2026-05-06 19:57 30.73115 -91.73719 37923 ft 395 kts 292°
2026-05-06 19:57 30.75865 -91.79253 37922 ft 395 kts 292°
2026-05-06 19:58 30.78612 -91.84787 37920 ft 395 kts 292°
2026-05-06 19:58 30.81358 -91.90327 37923 ft 395 kts 292°
2026-05-06 19:59 30.84098 -91.95865 37923 ft 395 kts 292°
2026-05-06 19:59 30.86836 -92.01406 37923 ft 395 kts 292°
2026-05-06 20:00 30.89574 -92.06953 37918 ft 395 kts 292°
2026-05-06 20:00 30.92303 -92.12493 37920 ft 395 kts 292°
2026-05-06 20:01 30.95035 -92.18041 37948 ft 395 kts 293°
2026-05-06 20:01 30.97764 -92.23598 37925 ft 395 kts 293°
2026-05-06 20:02 31.00492 -92.29159 37931 ft 395 kts 293°
2026-05-06 20:02 31.03220 -92.34726 37925 ft 396 kts 293°
2026-05-06 20:03 31.05948 -92.40302 37922 ft 396 kts 293°
2026-05-06 20:03 31.08675 -92.45886 37920 ft 396 kts 293°
2026-05-06 20:04 31.11399 -92.51470 37922 ft 396 kts 293°
2026-05-06 20:04 31.14122 -92.57061 37924 ft 396 kts 293°
2026-05-06 20:05 31.16843 -92.62656 37923 ft 396 kts 293°
2026-05-06 20:05 31.19561 -92.68251 37930 ft 397 kts 293°
2026-05-06 20:06 31.22307 -92.73912 37934 ft 403 kts 292°
2026-05-06 20:06 31.25061 -92.79600 37918 ft 401 kts 292°
2026-05-06 20:07 31.27804 -92.85275 37925 ft 401 kts 292°
2026-05-06 20:07 31.30547 -92.90956 37920 ft 401 kts 292°
2026-05-06 20:08 31.33286 -92.96639 37921 ft 401 kts 292°
2026-05-06 20:08 31.36023 -93.02324 37921 ft 401 kts 292°
2026-05-06 20:09 31.38756 -93.08011 37930 ft 401 kts 292°
2026-05-06 20:09 31.41489 -93.13706 37957 ft 402 kts 292°
2026-05-06 20:10 31.44199 -93.19360 37915 ft 400 kts 292°
2026-05-06 20:10 31.46927 -93.25059 37928 ft 401 kts 292°
2026-05-06 20:11 31.49664 -93.30784 37940 ft 397 kts 290°
2026-05-06 20:11 31.52345 -93.36403 37925 ft 394 kts 290°
2026-05-06 20:12 31.55004 -93.41983 37940 ft 395 kts 290°
2026-05-06 20:12 31.57681 -93.47607 37899 ft 394 kts 290°
2026-05-06 20:13 31.60326 -93.53240 37910 ft 391 kts 286°
2026-05-06 20:13 31.61960 -93.59192 37890 ft 384 kts 280°
2026-05-06 20:14 31.63503 -93.65180 37915 ft 384 kts 280°
2026-05-06 20:14 31.65020 -93.71183 37913 ft 383 kts 279°
2026-05-06 20:15 31.66529 -93.77184 37911 ft 383 kts 279°
2026-05-06 20:15 31.68034 -93.83187 37908 ft 383 kts 279°
2026-05-06 20:16 31.69537 -93.89190 37912 ft 383 kts 279°
2026-05-06 20:16 31.71036 -93.95195 37910 ft 383 kts 279°
2026-05-06 20:17 31.72534 -94.01206 37911 ft 383 kts 279°
2026-05-06 20:17 31.74028 -94.07212 37965 ft 381 kts 279°
2026-05-06 20:18 31.75491 -94.13109 37900 ft 374 kts 279°
2026-05-06 20:18 31.76944 -94.18980 37908 ft 375 kts 279°
2026-05-06 20:19 31.78389 -94.24829 37920 ft 370 kts 279°
2026-05-06 20:19 31.79820 -94.30635 37923 ft 370 kts 279°
2026-05-06 20:20 31.81250 -94.36449 37913 ft 370 kts 279°
2026-05-06 20:20 31.82676 -94.42264 37905 ft 370 kts 279°
2026-05-06 20:21 31.84101 -94.48079 37905 ft 370 kts 279°
2026-05-06 20:21 31.85522 -94.53897 37904 ft 370 kts 279°
2026-05-06 20:22 31.86943 -94.59718 37944 ft 369 kts 279°
2026-05-06 20:22 31.88345 -94.65485 37919 ft 366 kts 279°
2026-05-06 20:23 31.89745 -94.71252 37926 ft 367 kts 279°
2026-05-06 20:23 31.91139 -94.77008 37926 ft 367 kts 278°
2026-05-06 20:24 31.92534 -94.82779 37930 ft 367 kts 278°
2026-05-06 20:24 31.93922 -94.88534 37927 ft 367 kts 278°
2026-05-06 20:25 31.95312 -94.94308 37932 ft 367 kts 278°
2026-05-06 20:25 31.96701 -95.00087 37917 ft 367 kts 278°
2026-05-06 20:26 31.98086 -95.05864 37950 ft 365 kts 278°
2026-05-06 20:26 31.99423 -95.11582 36958 ft 364 kts 278°
2026-05-06 20:27 32.00081 -95.14465 36318 ft 363 kts 277°
2026-05-06 20:27 32.00736 -95.17327 35730 ft 361 kts 277°
2026-05-06 20:27 32.01391 -95.20189 35038 ft 362 kts 277°
2026-05-06 20:27 32.02047 -95.23060 34289 ft 366 kts 277°
2026-05-06 20:28 32.02707 -95.25948 33472 ft 373 kts 277°
2026-05-06 20:28 32.03394 -95.28955 32593 ft 377 kts 277°
2026-05-06 20:28 32.04076 -95.31946 31790 ft 379 kts 278°
2026-05-06 20:28 32.04762 -95.34958 31010 ft 381 kts 278°
2026-05-06 20:29 32.05442 -95.37949 30167 ft 385 kts 278°
2026-05-06 20:29 32.06138 -95.41016 29153 ft 389 kts 278°
2026-05-06 20:29 32.06837 -95.44097 28397 ft 386 kts 278°
2026-05-06 20:29 32.07531 -95.47160 27755 ft 391 kts 278°
2026-05-06 20:30 32.08232 -95.50254 27380 ft 385 kts 278°
2026-05-06 20:30 32.09593 -95.56152 26794 ft 365 kts 279°
2026-05-06 20:30 32.10334 -95.59014 26164 ft 364 kts 279°
2026-05-06 20:31 32.11065 -95.61863 25641 ft 362 kts 279°
2026-05-06 20:31 32.11788 -95.64696 25101 ft 360 kts 279°
2026-05-06 20:31 32.12508 -95.67525 24543 ft 359 kts 279°
2026-05-06 20:31 32.13225 -95.70343 23994 ft 358 kts 279°
2026-05-06 20:32 32.13939 -95.73155 23438 ft 358 kts 279°
2026-05-06 20:32 32.14635 -95.75971 22793 ft 356 kts 278°
2026-05-06 20:32 32.15284 -95.78777 22348 ft 352 kts 278°
2026-05-06 20:32 32.15925 -95.81537 22003 ft 349 kts 278°
2026-05-06 20:33 32.16568 -95.84297 21604 ft 349 kts 278°
2026-05-06 20:33 32.17210 -95.87055 21199 ft 348 kts 278°
2026-05-06 20:33 32.17848 -95.89800 20784 ft 346 kts 278°
2026-05-06 20:33 32.18484 -95.92533 20382 ft 345 kts 278°
2026-05-06 20:34 32.18902 -95.94336 20116 ft 344 kts 278°
2026-05-06 20:34 32.19532 -95.97050 19711 ft 342 kts 278°
2026-05-06 20:34 32.20158 -95.99753 19308 ft 341 kts 278°
2026-05-06 20:34 32.20781 -96.02446 18933 ft 339 kts 278°
2026-05-06 20:35 32.21399 -96.05120 18521 ft 337 kts 278°
2026-05-06 20:35 32.22015 -96.07784 18095 ft 335 kts 278°
2026-05-06 20:35 32.22627 -96.10436 17666 ft 334 kts 279°
2026-05-06 20:35 32.23238 -96.13085 17244 ft 334 kts 279°
2026-05-06 20:36 32.23847 -96.15732 16842 ft 333 kts 279°
2026-05-06 20:36 32.24453 -96.18368 16439 ft 332 kts 279°
2026-05-06 20:36 32.25058 -96.20998 16038 ft 331 kts 279°
2026-05-06 20:36 32.25658 -96.23614 15649 ft 328 kts 279°
2026-05-06 20:37 32.26253 -96.26205 15262 ft 325 kts 279°
2026-05-06 20:37 32.26841 -96.28773 14872 ft 322 kts 279°
2026-05-06 20:37 32.27440 -96.31315 14487 ft 321 kts 283°
2026-05-06 20:37 32.28563 -96.33645 14045 ft 335 kts 303°
2026-05-06 20:38 32.30158 -96.35663 13650 ft 335 kts 305°
2026-05-06 20:38 32.31742 -96.37679 13213 ft 334 kts 307°
2026-05-06 20:38 32.33502 -96.39501 12774 ft 337 kts 313°
2026-05-06 20:38 32.35281 -96.41279 12376 ft 332 kts 313°
2026-05-06 20:39 32.37024 -96.43043 12002 ft 328 kts 313°
2026-05-06 20:39 32.38636 -96.44895 11581 ft 315 kts 299°
2026-05-06 20:39 32.39700 -96.47094 11197 ft 304 kts 294°
2026-05-06 20:39 32.40722 -96.49246 10879 ft 296 kts 294°
2026-05-06 20:40 32.41713 -96.51341 10545 ft 288 kts 294°
2026-05-06 20:40 32.42679 -96.53392 10213 ft 282 kts 294°
2026-05-06 20:40 32.43623 -96.55398 9882 ft 276 kts 295°
2026-05-06 20:40 32.44543 -96.57359 9520 ft 271 kts 295°
2026-05-06 20:41 32.45453 -96.59295 9183 ft 265 kts 295°
2026-05-06 20:41 32.46337 -96.61183 8866 ft 260 kts 295°
2026-05-06 20:41 32.47212 -96.63049 8558 ft 259 kts 295°
2026-05-06 20:41 32.48081 -96.64905 8250 ft 257 kts 295°
2026-05-06 20:42 32.48923 -96.66762 7962 ft 254 kts 289°
2026-05-06 20:42 32.49257 -96.68786 7645 ft 251 kts 272°
2026-05-06 20:42 32.49399 -96.70855 7364 ft 253 kts 272°
2026-05-06 20:42 32.49538 -96.72930 7078 ft 253 kts 272°
2026-05-06 20:43 32.49669 -96.75004 6802 ft 252 kts 272°
2026-05-06 20:43 32.49795 -96.77074 6512 ft 251 kts 272°
2026-05-06 20:43 32.49917 -96.79132 6201 ft 250 kts 272°
2026-05-06 20:43 32.50018 -96.81171 6024 ft 244 kts 271°
2026-05-06 20:44 32.50094 -96.83149 6016 ft 239 kts 271°
2026-05-06 20:44 32.50172 -96.85114 5997 ft 238 kts 271°
2026-05-06 20:44 32.50249 -96.87067 5997 ft 237 kts 271°
2026-05-06 20:44 32.50327 -96.89013 5988 ft 236 kts 271°
2026-05-06 20:45 32.50406 -96.90953 6000 ft 235 kts 271°
2026-05-06 20:45 32.50482 -96.92884 5989 ft 235 kts 271°
2026-05-06 20:45 32.50560 -96.94824 5993 ft 236 kts 271°
2026-05-06 20:45 32.50638 -96.96766 5994 ft 236 kts 271°
2026-05-06 20:46 32.50842 -96.98708 5966 ft 242 kts 288°
2026-05-06 20:46 32.51797 -97.00341 5989 ft 252 kts 313°
2026-05-06 20:46 32.53251 -97.01495 6000 ft 260 kts 332°
2026-05-06 20:46 32.55048 -97.02016 5986 ft 260 kts 348°
2026-05-06 20:47 32.56764 -97.02309 6025 ft 246 kts 346°
2026-05-06 20:47 32.58412 -97.02589 6013 ft 235 kts 349°
2026-05-06 20:47 32.60038 -97.02725 5934 ft 234 kts 353°
2026-05-06 20:47 32.61676 -97.02758 5655 ft 237 kts 355°
2026-05-06 20:48 32.63334 -97.02752 5319 ft 240 kts 356°
2026-05-06 20:48 32.65010 -97.02741 5026 ft 242 kts 356°
2026-05-06 20:48 32.66692 -97.02732 4734 ft 242 kts 356°
2026-05-06 20:48 32.68363 -97.02721 4440 ft 237 kts 356°
2026-05-06 20:49 32.69991 -97.02713 4115 ft 231 kts 357°
2026-05-06 20:49 32.71570 -97.02705 3811 ft 222 kts 358°
2026-05-06 20:49 32.73078 -97.02698 3522 ft 212 kts 360°
2026-05-06 20:49 32.74514 -97.02690 3250 ft 201 kts
2026-05-06 20:50 32.75857 -97.02683 2987 ft 186 kts
2026-05-06 20:50 32.77071 -97.02676 2764 ft 164 kts
2026-05-06 20:50 32.78153 -97.02670 2542 ft 151 kts
2026-05-06 20:50 32.79176 -97.02664 2383 ft 143 kts
2026-05-06 20:51 32.80150 -97.02659 2152 ft 138 kts
2026-05-06 20:51 32.81107 -97.02654 1962 ft 138 kts
2026-05-06 20:51 32.82068 -97.02643 1783 ft 138 kts
2026-05-06 20:51 32.83019 -97.02635 1600 ft 137 kts 360°
2026-05-06 20:52 32.83979 -97.02619 1389 ft 139 kts 359°
2026-05-06 20:52 32.84920 -97.02629 1211 ft 140 kts 359°
2026-05-06 20:52 32.85846 -97.02643 1062 ft 140 kts
2026-05-06 20:52 32.86803 -97.02635 876 ft 140 kts
2026-05-06 20:53 32.87744 -97.02620 683 ft 139 kts
2026-05-06 20:53 32.88666 -97.02610 602 ft 121 kts
2026-05-06 20:53 32.89314 -97.02611 601 ft 59 kts
2026-05-06 20:53 32.89639 -97.02608 601 ft 33 kts
2026-05-06 20:54 32.89796 -97.02625 601 ft 19 kts 346°
2026-05-06 20:54 32.89896 -97.02663 601 ft 10 kts 336°
2026-05-06 20:54 32.89966 -97.02707 601 ft 13 kts 330°
2026-05-06 20:54 32.90049 -97.02763 601 ft 15 kts 330°
2026-05-06 20:55 32.90152 -97.02801 601 ft 16 kts
2026-05-06 20:55 32.90272 -97.02800 601 ft 18 kts 360°
2026-05-06 20:55 32.90400 -97.02800 601 ft 17 kts
2026-05-06 20:55 32.90464 -97.02847 601 ft 12 kts 281°
2026-05-06 20:56 32.90465 -97.02958 601 ft 15 kts 271°
2026-05-06 20:56 32.90467 -97.03091 601 ft 17 kts 270°
2026-05-06 20:56 32.90468 -97.03239 600 ft 15 kts 270°
2026-05-06 20:56 32.90421 -97.03314 600 ft 14 kts 180°
2026-05-06 20:57 32.90317 -97.03313 600 ft 16 kts 180°
2026-05-06 20:57 32.90194 -97.03315 601 ft 19 kts 179°
2026-05-06 20:57 32.90055 -97.03316 600 ft 20 kts 181°
2026-05-06 20:57 32.89959 -97.03319 601 ft 10 kts 194°
2026-05-06 20:58 32.89948 -97.03374 601 ft 9 kts 274°
2026-05-06 20:58 32.89952 -97.03456 600 ft 11 kts 273°
2026-05-06 20:58 32.89946 -97.03519 601 ft 6 kts 246°
2026-05-06 20:58 32.89937 -97.03542 600 ft 2 kts 245°
2026-05-06 20:59 32.89935 -97.03548 601 ft 0 kts 245°